Skip Page Navigation
NASA JPL Caltech
NASA Logo - Jet Propulsion Laboratory + View the NASA Portal
+ Center for Near-Earth Object Studies
JPL Home Earth Solar System Stars & Galaxies Technology
JPL Solar System Dynamics
BODIES ORBITS EPHEMERIDES TOOLS PHYSICAL DATA DISCOVERY FAQ SITE MAP
JPL Small-Body Database Browser
Search: [ help ]  
(2020 VH)
Classification: Aten [NEO]          SPK-ID: 54087418
Ephemeris | Orbit Diagram | Orbital Elements | Mission Design | Physical Parameters | Close-Approach Data ]

[ show orbit diagram ]
Orbital Elements at Epoch 2459000.5 (2020-May-31.0) TDB
Reference: JPL 6 (heliocentric ecliptic J2000)
 Element Value Uncertainty (1-sigma)   Units 
e .1904145651267885 0.0001126  
a .8638459155730067 6.3663e-05 au
q .6993570712226201 0.00014881 au
i 2.368659639561411 0.0015856 deg
node 40.95517521775415 0.0002742 deg
peri 154.835111430234 0.0021489 deg
M 24.13178181419521 0.016548 deg
tp 2458980.841981367613
(2020-May-11.34198137)
0.015651 TDB
period 293.2600154496789
0.80
0.032419
8.876e-05
d
yr
n 1.227579557506275 0.0001357 deg/d
Q 1.028334759923393 7.5786e-05 au
  Orbit Determination Parameters
   # obs. used (total)      60  
   data-arc span      4 days  
   first obs. used      2020-11-05  
   last obs. used      2020-11-09  
   planetary ephem.      DE431  
   SB-pert. ephem.      SB431-N16  
   condition code      6  
   norm. resid. RMS      .3617  
   source      ORB  
   producer      Otto Matic  
   solution date      2020-Nov-10 05:19:31  

Additional Information
 Earth MOID = .00569483 au 
 Jupiter MOID = 3.92654 au 
 T_jup = 6.823 
[ show covariance matrix ]

Ephemeris | Orbit Diagram | Orbital Elements | Mission Design | Physical Parameters | Close-Approach Data ]

Physical Parameter Table
Parameter Symbol Value Units Sigma Reference Notes
absolute magnitude H 28.556   .3246 6 autocmod 2.8

[ hide close-approach data ]
Close-Approach Data   ...sorted by Date/Time (TDB)
Date/Time (TDB) Time Uncertainty
(days_HH:MM)
Body Nominal Distance (au) Minimum Distance (au) Maximum Distance (au) V-relative (km/s) V-infinity (km/s) JD (TDB) Time Uncertainty (minutes) Semi-major axis (km) Semi-minor axis (km) range-LOV angle (deg) N-sigma BP Orbit Ref. Reference Modified
1900-Nov-16 09:26 1_19:11 Earth 0.134696855851753 0.00433079702064582 0.285506244227183 8.46200554700334 8.45966756269031 2415339.892830542 2590.72317473259 7521144.43532358 67.7447353899206 -1.87418748854954 7058.52893991313 T 6 CATAB v2.0f-lin.ifort 2020-Nov-10 05:19:32 2020-Nov-10 05:19
1904-Jun-24 20:52 6_16:19 Earth 0.228650204889632 0.219836272886583 0.237502710158165 5.04541685381177 5.04310668803546 2416656.369164228 9619.48651976144 464718.104571004 70.952709473744 -19.0047290446073 52490.0507323104 T 6 CATAB v2.0f-lin.ifort 2020-Nov-10 05:19:32 2020-Nov-10 05:19
1904-Nov-16 18:46 22:43 Earth 0.0933697287386302 0.0792548195059302 0.107482837574609 7.11965311222329 7.11564380140891 2416801.281990755 1363.08643234076 703511.266022768 67.047199607415 -0.893440590156206 2230.45859449666 T 6 CATAB v2.0f-lin.ifort 2020-Nov-10 05:19:32 2020-Nov-10 05:19
1908-Apr-10 00:24 9_20:38 Venus 0.0631674337047436 0.0118504544388348 0.186885811519895 7.85406734283008 7.84968907668596 2418041.516692252 14198.4637947955 6205946.07069029 99.9971777194112 10.8669523142206 15095.6160507427 T 6 CATAB v2.0f-lin.ifort 2020-Nov-10 05:19:32 2020-Nov-10 05:19
1908-Nov-16 10:46 20:43 Earth 0.07740898936436 0.00535739953478669 0.187337329779048 6.59867120006582 6.59345281371359 2418261.948871750 1242.56410746092 5485965.9282847 51.2664197443629 -4.04531190535907 11735.5764701094 T 6 CATAB v2.0f-lin.ifort 2020-Nov-10 05:19:32 2020-Nov-10 05:19
1912-Nov-16 10:22 1_17:15 Earth 0.114137913920668 0.00479535293131701 0.241732217554768 7.75958529734098 7.75657625617786 2419722.932130416 2474.53191354536 6364254.16411147 60.425094585143 -2.45030935501514 8756.67125747467 T 6 CATAB v2.0f-lin.ifort 2020-Nov-10 05:19:32 2020-Nov-10 05:19
1916-Apr-04 04:55 7_09:23 Venus 0.141980617880565 0.0123028157537206 0.288368450221717 11.8104908514228 11.8091957739529 2420957.704589141 10642.8435514701 7312920.24962102 158.985775266268 4.98441244962706 9417.89766369332 T 6 CATAB v2.0f-lin.ifort 2020-Nov-10 05:19:32 2020-Nov-10 05:19
1916-Nov-15 08:56 3_00:41 Earth 0.166691270864925 0.0560118420317176 0.277366003900718 9.45037008389615 9.44867851553762 2421182.872009360 4361.4576052244 5518841.76022918 76.1764884926392 -1.1023152473107 4560.49196847422 T 6 CATAB v2.0f-lin.ifort 2020-Nov-10 05:19:32 2020-Nov-10 05:19
1920-Nov-13 07:07 2_13:02 Earth 0.237533836234084 0.16917302851897 0.305890068732919 11.6950208524239 11.6940616645417 2422641.796271520 3662.16283321382 3408366.56999398 96.5996710139903 0.0797963390011536 298.89096079843 T 6 CATAB v2.0f-lin.ifort 2020-Nov-10 05:19:32 2020-Nov-10 05:19
1921-Dec-29 21:21 5_02:35 Venus 0.0885346119008451 0.0259604457278179 0.159464707658922 9.06946727128973 9.06676244832322 2423053.389899615 7355.04673435459 3600310.27291177 38.7518964584047 14.5520702938142 59286.8212415331 T 6 CATAB v2.0f-lin.ifort 2020-Nov-10 05:19:32 2020-Nov-10 05:19
1924-May-19 00:39 3_06:14 Earth 0.287707109485036 0.285696345981037 0.289720120563133 8.15925738855934 8.15812226969767 2423924.527052927 4694.31758390302 108042.699875187 45.4529008665129 21.8999154938312 99514.9079947408 T 6 CATAB v2.0f-lin.ifort 2020-Nov-10 05:19:32 2020-Nov-10 05:19
1924-Nov-11 04:09 06:06 Earth 0.300068997039321 0.29231629701953 0.307821695105717 13.6822142437499 13.681565243082 2424100.672622128 365.572108114417 386593.870879135 112.337045668532 0.706233182097744 3624.9997703772 T 6 CATAB v2.0f-lin.ifort 2020-Nov-10 05:19:32 2020-Nov-10 05:19
1928-May-09 00:07 7_01:14 Earth 0.297361980542678 0.290370136954432 0.304395778639203 8.71533258379141 8.71430440516949 2425375.504935422 10153.6649357213 391558.094443514 43.0815634385547 26.7769255925602 193596.10937411 T 6 CATAB v2.0f-lin.ifort 2020-Nov-10 05:19:32 2020-Nov-10 05:19
1928-Nov-08 18:34 2_09:38 Earth 0.363552780176615 0.30528638976221 0.421822161513639 15.7103079327195 15.7098414166185 2425559.273893611 3457.60578191896 2906049.14438938 130.562268352346 1.14059609030462 6673.81519851203 T 6 CATAB v2.0f-lin.ifort 2020-Nov-10 05:19:32 2020-Nov-10 05:19
1932-Nov-05 15:33 3_11:45 Earth 0.429067569522837 0.336854444752497 0.521285946049406 17.7506948645106 17.7503450195779 2427017.148109446 5025.02773144916 4599035.87347522 134.816089430583 1.01360230863299 6900.30938164994 T 6 CATAB v2.0f-lin.ifort 2020-Nov-10 05:19:32 2020-Nov-10 05:19
1936-Nov-02 15:29 4_13:31 Earth 0.498959544258244 0.385451272104811 0.612487753825305 19.9705748708745 19.9703074721303 2428475.144813363 6570.53713004288 5662880.28594872 152.915752407186 1.59381466007941 11452.6678754919 T 6 CATAB v2.0f-lin.ifort 2020-Nov-10 05:19:32 2020-Nov-10 05:19
1937-Oct-18 20:08 8_22:12 Venus 0.0778867118525755 0.0102554454983195 0.221028531183067 8.70605932600059 8.70285627501404 2428825.338935822 12851.5690253157 7159259.56505907 113.194125325312 7.60462453939978 11270.0611057444 T 6 CATAB v2.0f-lin.ifort 2020-Nov-10 05:19:32 2020-Nov-10 05:19
1939-Sep-19 19:00 4_02:15 Earth 0.488457528387368 0.387394154096256 0.589579849202229 19.5546369992883 19.5543580412447 2429526.291821768 5895.22714195361 5048188.19900714 131.908104154955 2.99719724214033 24534.1415596285 T 6 CATAB v2.0f-lin.ifort 2020-Nov-10 05:19:32 2020-Nov-10 05:19
1943-Jul-13 19:52 4_11:47 Venus 0.113367662975974 0.0342742301186845 0.197318733583638 10.3205444086578 10.3186882452759 2430919.327556782 6466.89400213195 4231959.26579003 37.6582959388582 11.1897802450651 63270.748556718 T 6 CATAB v2.0f-lin.ifort 2020-Nov-10 05:19:32 2020-Nov-10 05:19
1943-Sep-16 08:41 2_17:39 Earth 0.400180464681736 0.332291877861783 0.468120193487475 16.7250319549658 16.7246338526672 2430983.861700846 3939.39899641696 3394110.13828837 113.123763590784 3.78631340215527 29029.8393798945 T 6 CATAB v2.0f-lin.ifort 2020-Nov-10 05:19:32 2020-Nov-10 05:19
1944-Mar-23 19:57 9_00:16 Earth 0.301871039474464 0.296190798260161 0.307956450232114 9.11879337373572 9.11782537100295 2431173.330944924 12975.7318405332 624760.253240383 213.319158732236 -61.9849497333365 94589.4586742593 T 6 CATAB v2.0f-lin.ifort 2020-Nov-10 05:19:32 2020-Nov-10 05:19
1947-Sep-13 14:12 22:02 Earth 0.324326012206701 0.305519739206062 0.343136175066429 14.3199813242608 14.3194076084443 2432442.091726495 1322.1595283509 939560.774600836 110.684338718769 3.46110467255115 21795.6171954047 T 6 CATAB v2.0f-lin.ifort 2020-Nov-10 05:19:32 2020-Nov-10 05:19
1948-Mar-11 20:50 1_09:06 Earth 0.292125006227388 0.290308074880739 0.293950855363649 8.60974926070388 8.60868981223039 2432622.367708624 1986.22949986857 121359.080932585 201.1476885528 -41.5699661703675 70297.5263443763 T 6 CATAB v2.0f-lin.ifort 2020-Nov-10 05:19:32 2020-Nov-10 05:19
1951-Sep-10 22:13 22:47 Earth 0.25270458546101 0.222437993742229 0.283057611184983 12.0360173619576 12.0351413052194 2433900.425503884 1367.40599204333 1529292.36800609 65.5741695424618 8.74072011055284 70975.1734306968 T 6 CATAB v2.0f-lin.ifort 2020-Nov-10 05:19:32 2020-Nov-10 05:19
1952-Feb-28 19:22 6_10:36 Earth 0.278393943009036 0.270618726230696 0.286311694994387 7.88401054767999 7.88279649140584 2434071.306635825 9275.66800597544 501789.882311922 220.177298471583 -38.7881453200563 53914.9953401203 T 6 CATAB v2.0f-lin.ifort 2020-Nov-10 05:19:32 2020-Nov-10 05:19
1955-Sep-09 01:51 1_07:00 Earth 0.185787284309147 0.129568916257864 0.24271948166558 9.86042784325178 9.85897327988888 2435359.576811939 1860.06230419218 2879095.07532268 56.2862383683049 11.0126336375428 77127.420327359 T 6 CATAB v2.0f-lin.ifort 2020-Nov-10 05:19:32 2020-Nov-10 05:19
